4XBIJ LLHZ-LLHZ

Flight info

Callsign 4XBIJ
Flight time 0h 0m
Altitude 400
Route SFAIM APOLN ARENA HTZUK KNTRY
Aircraft R44/L-S/5100

Departure

Time 2026-04-15 15:43
Airport Herzliya Airport (LLHZ)

Arrival

Time 2026-04-15 15:43
Airport Herzliya Airport (LLHZ)
Time Latitude Longitude Altitude Speed Heading
2026-04-15 15:14 32.18133 34.82879 89 ft 0 kts 20°
2026-04-15 15:20 32.18145 34.82920 137 ft 26 kts 79°
2026-04-15 15:20 32.18342 34.82981 204 ft 62 kts
2026-04-15 15:20 32.18878 34.83054 257 ft 90 kts 13°
2026-04-15 15:21 32.19536 34.83226 293 ft 100 kts 18°
2026-04-15 15:21 32.20192 34.83480 388 ft 101 kts 18°
2026-04-15 15:21 32.20744 34.83129 459 ft 111 kts 299°
2026-04-15 15:21 32.21076 34.82239 419 ft 126 kts 290°
2026-04-15 15:22 32.20958 34.81297 470 ft 127 kts 229°
2026-04-15 15:22 32.20194 34.80757 436 ft 126 kts 197°
2026-04-15 15:22 32.19336 34.80438 301 ft 130 kts 191°
2026-04-15 15:22 32.18501 34.80206 397 ft 115 kts 193°
2026-04-15 15:23 32.17726 34.79973 393 ft 115 kts 196°
2026-04-15 15:23 32.16943 34.79695 416 ft 114 kts 198°
2026-04-15 15:23 32.16189 34.79429 473 ft 113 kts 191°
2026-04-15 15:23 32.15601 34.79788 526 ft 108 kts 123°
2026-04-15 15:24 32.15388 34.80658 532 ft 108 kts 86°
2026-04-15 15:24 32.15721 34.81419 577 ft 108 kts 38°
2026-04-15 15:24 32.16416 34.81779 361 ft 119 kts 16°
2026-04-15 15:24 32.17059 34.82322 400 ft 113 kts 47°
2026-04-15 15:25 32.17696 34.82734 495 ft 97 kts
2026-04-15 15:25 32.18233 34.82834 333 ft 44 kts 86°
2026-04-15 15:25 32.18259 34.83001 275 ft 18 kts 238°
2026-04-15 15:25 32.18163 34.83021 131 ft 20 kts 286°
2026-04-15 15:26 32.18142 34.82937 144 ft 10 kts 288°
2026-04-15 15:26 32.18127 34.82888 138 ft 18 kts 177°
2026-04-15 15:26 32.18119 34.82926 119 ft 35 kts 68°
2026-04-15 15:26 32.18256 34.83065 165 ft 36 kts 30°
2026-04-15 15:27 32.18119 34.83040 275 ft 27 kts 261°
2026-04-15 15:27 32.18151 34.82976 134 ft 9 kts 195°
2026-04-15 15:27 32.18116 34.82951 119 ft 4 kts 349°
2026-04-15 15:27 32.18114 34.82941 93 ft 0 kts
2026-04-15 15:28 32.18222 34.82990 145 ft 51 kts 29°
2026-04-15 15:29 32.18636 34.83139 243 ft 72 kts 20°
2026-04-15 15:29 32.19217 34.83351 231 ft 97 kts 17°
2026-04-15 15:29 32.19893 34.83581 243 ft 107 kts 21°
2026-04-15 15:29 32.20604 34.83898 221 ft 113 kts 16°
2026-04-15 15:30 32.21304 34.84239 283 ft 111 kts 28°
2026-04-15 15:30 32.21649 34.84381 343 ft 59 kts 104°
2026-04-15 15:30 32.22090 34.84808 199 ft 101 kts 29°
2026-04-15 15:30 32.22732 34.85209 217 ft 108 kts 27°
2026-04-15 15:31 32.23469 34.85412 212 ft 114 kts
2026-04-15 15:31 32.24275 34.85475 99 ft 116 kts 14°
2026-04-15 15:31 32.24553 34.86087 116 ft 39 kts 327°
2026-04-15 15:31 32.24626 34.85972 133 ft 42 kts 303°
2026-04-15 15:32 32.24686 34.85679 346 ft 55 kts 263°
2026-04-15 15:32 32.24550 34.86027 103 ft 76 kts 51°
2026-04-15 15:32 32.24506 34.85817 108 ft 62 kts 196°
2026-04-15 15:32 32.24419 34.85984 24 ft 3 kts 68°
2026-04-15 15:33 32.24406 34.85964 35 ft 2 kts 74°
2026-04-15 15:33 32.24401 34.85952 34 ft 1 kts 78°
2026-04-15 15:33 32.24401 34.85944 33 ft 1 kts 78°
2026-04-15 15:33 32.24398 34.85941 32 ft 0 kts 79°
2026-04-15 15:34 32.24398 34.85939 32 ft 0 kts 78°
2026-04-15 15:34 32.24397 34.85938 32 ft 0 kts 79°
2026-04-15 15:34 32.24391 34.85941 30 ft 3 kts 82°
2026-04-15 15:34 32.24386 34.85938 31 ft 0 kts 79°
2026-04-15 15:35 32.24383 34.85940 32 ft 0 kts 78°
2026-04-15 15:35 32.24393 34.86009 19 ft 4 kts 101°
2026-04-15 15:35 32.24405 34.86016 16 ft 2 kts 26°
2026-04-15 15:35 32.24406 34.86018 12 ft 0 kts 25°
2026-04-15 15:37 32.24506 34.86060 31 ft 48 kts
2026-04-15 15:37 32.24564 34.85620 133 ft 56 kts 19°
2026-04-15 15:37 32.24641 34.86099 62 ft 69 kts 96°
2026-04-15 15:38 32.24616 34.85937 66 ft 81 kts 292°
2026-04-15 15:38 32.24519 34.85874 95 ft 76 kts 41°
2026-04-15 15:38 32.24738 34.86025 63 ft 40 kts 269°
2026-04-15 15:38 32.24719 34.85805 359 ft 30 kts 163°
2026-04-15 15:39 32.24635 34.86011 499 ft 14 kts 121°
2026-04-15 15:39 32.24475 34.86269 116 ft 75 kts 123°
2026-04-15 15:39 32.24336 34.86884 168 ft 89 kts 103°
2026-04-15 15:39 32.24209 34.87687 164 ft 107 kts 98°
2026-04-15 15:40 32.24307 34.87835 195 ft 79 kts 228°
2026-04-15 15:40 32.23836 34.87306 223 ft 99 kts 232°
2026-04-15 15:40 32.23398 34.86638 317 ft 105 kts 240°
2026-04-15 15:40 32.23240 34.85851 329 ft 110 kts 270°
2026-04-15 15:41 32.23048 34.84939 324 ft 118 kts 228°
2026-04-15 15:41 32.22255 34.84526 236 ft 128 kts 195°
2026-04-15 15:41 32.21410 34.84273 259 ft 123 kts 192°
2026-04-15 15:41 32.20603 34.83998 310 ft 120 kts 198°
2026-04-15 15:42 32.19800 34.83750 335 ft 119 kts 178°
2026-04-15 15:42 32.19296 34.84341 443 ft 115 kts 107°
2026-04-15 15:42 32.18672 34.84659 311 ft 124 kts 229°
2026-04-15 15:42 32.18549 34.83770 362 ft 108 kts 241°
2026-04-15 15:43 32.18087 34.83246 210 ft 69 kts 289°
2026-04-15 15:43 32.18138 34.82960 123 ft 12 kts 285°
2026-04-15 15:43 32.18128 34.82926 726 ft 59 kts
2026-04-15 15:43 32.18197 34.83235 336 ft 9 kts 322°
2026-04-15 15:44 32.18160 34.83006 157 ft 19 kts 246°
2026-04-15 15:44 32.18140 34.82934 116 ft 5 kts 264°
2026-04-15 15:44 32.18126 34.82899 105 ft 4 kts 50°
2026-04-15 15:44 32.18263 34.83028 571 ft 14 kts 31°
2026-04-15 15:45 32.18137 34.83124 196 ft 18 kts 269°
2026-04-15 15:45 32.18159 34.82994 148 ft 13 kts 248°
2026-04-15 15:45 32.18144 34.82947 173 ft 5 kts 281°
2026-04-15 15:45 32.18140 34.82915 127 ft 11 kts 267°
2026-04-15 15:46 32.18134 34.82887 119 ft 8 kts 19°
2026-04-15 15:46 32.18128 34.82897 95 ft 6 kts 351°
2026-04-15 15:46 32.18126 34.82901 98 ft 1 kts
2026-04-15 15:46 32.18125 34.82902 93 ft 0 kts 15°
2026-04-15 15:49 32.18145 34.82943 115 ft 29 kts 87°
2026-04-15 15:49 32.18004 34.83424 134 ft 81 kts 107°
2026-04-15 15:49 32.17920 34.83811 155 ft 15 kts 329°
2026-04-15 15:50 32.18051 34.83369 125 ft 79 kts 293°
2026-04-15 15:50 32.18093 34.83164 321 ft 18 kts 229°
2026-04-15 15:50 32.18240 34.82792 564 ft 34 kts
2026-04-15 15:50 32.18131 34.82983 160 ft 32 kts 108°
2026-04-15 15:51 32.18021 34.83387 169 ft 6 kts 305°
2026-04-15 15:51 32.18146 34.82970 114 ft 73 kts 295°
2026-04-15 15:51 32.18208 34.83083 588 ft 10 kts 67°
2026-04-15 15:51 32.18023 34.83544 170 ft 89 kts 105°
2026-04-15 15:52 32.18017 34.83416 152 ft 62 kts 289°
2026-04-15 15:52 32.18117 34.83009 747 ft 64 kts 230°
2026-04-15 15:52 32.18016 34.82819 649 ft 2 kts 185°
2026-04-15 15:52 32.18020 34.82828 386 ft 1 kts 178°
2026-04-15 15:53 32.18043 34.82776 261 ft 38 kts 307°
2026-04-15 15:53 32.18152 34.82949 138 ft 73 kts 106°
2026-04-15 15:53 32.18030 34.83364 186 ft 36 kts 113°
2026-04-15 15:53 32.17984 34.83476 301 ft 3 kts
2026-04-15 15:54 32.17987 34.83484 143 ft 19 kts 320°
2026-04-15 15:54 32.18095 34.83126 142 ft 63 kts 290°
2026-04-15 15:54 32.18126 34.82984 148 ft 9 kts 307°
2026-04-15 15:54 32.18117 34.82917 115 ft 3 kts 339°
2026-04-15 15:55 32.18123 34.82902 104 ft 0 kts 351°